Regional Weather Roundup
Issued by NWS

Home | Current Version | Previous Version | Text Only | Print | Product List | Glossary Off
Versions: 1 2 3 4 5 6 7 8 9 10 11 12 13 14 15 16 17 18 19 20 21 22 23 24 25 26 27 28 29 30 31 32 33 34 35 36 37 38 39 40 41 42 43 44 45 46 47 48 49 50

000
ASUS43 KOAX 161402
RWRNE

WEATHER ROUNDUP FOR NEBRASKA
NATIONAL WEATHER SERVICE OMAHA NE
800 AM CST MON JAN 16 2017

NOTES: SATELLITE DATA IS BEING USED TO AUGMENT CLOUD COVER ABOVE
       12000 FEET.
       "FAIR" INDICATES FEW OR NO CLOUDS BELOW 12,000 FEET WITH NO
       SIGNIFICANT WEATHER AND/OR OBSTRUCTIONS TO VISIBILITY.

  * THESE STATIONS DO NOT REPORT WEATHER SUCH AS RAIN...SNOW OR FOG.

NEZ001>004-019>022-054>056-161500-
NEBRASKA PANHANDLE

CITY           SKY/WX    TMP DP  RH WIND       PRES   REMARKS
SCOTTSBLUFF    CLOUDY    35  23  61 N10       30.04R WCI  27
ALLIANCE       CLOUDY    30  22  72 N13       30.02R WCI  20
CHADRON        CLOUDY    25  17  72 VRB3      30.10R
KIMBALL        CLOUDY    32  28  83 N14       29.99S WCI  22
SIDNEY         LGT SNOW  30  27  88 N17G24    29.98S FOG     WCI  18
$$

NEZ057>060-069>072-079>082-161500-
SOUTHWEST NEBRASKA

CITY           SKY/WX    TMP DP  RH WIND       PRES   REMARKS
NORTH PLATTE   LGT RAIN  33  31  92 N10       29.94F WCI  25
IMPERIAL       FRZ RAIN  33  30  88 N18       29.91S WCI  22
LEXINGTON      LGT RAIN  32  31  96 N8        29.93S WCI  25
MCCOOK         MIX PCPN  32  32 100 N13       29.91S FOG     WCI  22
OGALLALA       RAIN      34  33  95 N9        29.96S WCI  27
$$

NEZ005>010-023>029-035>040-094-161500-
NORTH CENTRAL NEBRASKA

CITY           SKY/WX    TMP DP  RH WIND       PRES   REMARKS
VALENTINE      CLOUDY    29  21  72 NW8       30.04S WCI  21
AINSWORTH      CLOUDY    29  28  95 N7        30.01F WCI  22
BROKEN BOW     FRZ RAIN  33  31  92 N16       29.94S FOG     WCI  23
O`NEILL        MIX PCPN  32  32 100 N10       30.01S WCI  24
ORD            CLOUDY    32  30  92 N9        29.96F FOG     WCI  24
THEDFORD       MIX PCPN  33  32  96 N7        29.99S WCI  27
$$

NEZ041-046>049-061>064-073>077-083>087-161500-
SOUTH CENTRAL NEBRASKA

CITY           SKY/WX    TMP DP  RH WIND       PRES   REMARKS
GRAND ISLAND   FRZ RAIN  31  31 100 NE16      29.93F FOG     WCI  20
AURORA         MIX PCPN  32  31  97 NE8       29.92F WCI  25
HASTINGS       FRZ RAIN  32  30  92 NE18      29.91F FOG     WCI  20
HEBRON         LGT SNOW  32  32  99 NE7       29.90F WCI  26
HOLDREGE       MIX PCPN  32  31  96 N7        29.89F WCI  26
KEARNEY *      CLOUDY    30  28  93 N13       29.92F WCI  20
YORK           RAIN      32  32 100 CALM      29.93F
$$

NEZ011>018-030>034-042>045-161500-
NORTHEAST NEBRASKA

CITY           SKY/WX    TMP DP  RH WIND       PRES   REMARKS
NORFOLK        CLOUDY    31  29  92 NE7       29.99F WCI  24
ALBION         MIX PCPN  32  30  93 NE8       29.98S WCI  25
BLAIR          MIX PCPN  32  32 100 NE10      29.97F WCI  24
FREMONT        CLOUDY    32  32 100 NE9       29.99F WCI  24
TEKAMAH        CLOUDY    33  31  92 NE8       30.01F WCI  26
WAYNE          CLOUDY    31  31  99 NE7       30.02S FOG     WCI  24
$$

NEZ050>053-065>068-078-088>093-161500-
SOUTHEAST NEBRASKA

CITY           SKY/WX    TMP DP  RH WIND       PRES   REMARKS
LINCOLN        LGT RAIN  33  32  96 NE10      29.98S FOG     WCI  25
OMAHA EPPLEY   LGT RAIN  33  29  85 NE9       29.99F FOG     WCI  25
BEATRICE       LGT SNOW  33  32  96 NE8       29.91F WCI  26
FALLS CITY     RAIN      33  32  96 E9        29.92F WCI  25
NEBRASKA CITY  MIX PCPN  32  32 100 NE8       29.95F WCI  25
PLATTSMOUTH    MIX PCPN  32  31  94 NE9       29.97S WCI  24
$$

NEZ044-045-051>053-067-161500-
OMAHA AREA

CITY           SKY/WX    TMP DP  RH WIND       PRES   REMARKS
OMAHA EPPLEY   LGT RAIN  33  29  85 NE9       29.99F FOG     WCI  25
BLAIR          MIX PCPN  32  32 100 NE10      29.97F WCI  24
FREMONT        CLOUDY    32  32 100 NE9       29.99F WCI  24
MILLARD        LGT RAIN  34  33  94 NE3       29.98F
OFFUTT AFB     RAIN      33  33 100 NE9       29.97F FOG     WCI  25
PLATTSMOUTH    MIX PCPN  32  31  94 NE9       29.97S WCI  24
WAHOO          MIX PCPN  32  32  99 NE13      29.97F WCI  22
$$




USA.gov is the U.S. government's official web portal to all federal, state and local government web resources and services.